Cape Town Hub Information

GPS Position: 3358"1'S / 1836"3'E Runways: 01 / 19 and 16 / 34
Fuel available: 100 and Jet Magnetic Variation: 25W
Elevation: 151ft Approaches: ILS LOC / DME
Maximum Runway Length: 10502 x 200ft Hours of Operation: 24 Hours

Current VATSIM METAR

FACT 281400Z 16016KT 130V190 9999 FEW040 23/13 Q1017 NOSIG

Cape Town Domestic and Regional Flights

Cape Town International Flights